CT1ETE Weather Reports


time (UTC)temp
C
wind
direction
speed
KPH
gust
KPH
rain 1hr
cm
rain 24hr
cm
rain mn
cm
humidity
%
barometer
mb
20260904124721 29 298 6.4 12.9 0.00 0.00 0.00 53 1021.9
20260904123219 29 233 3.2 9.7 0.00 0.00 0.00 53 1022.4
20260904121720 29 240 4.8 8.0 0.00 0.00 0.00 51 1022.5
20260904120219 29 69 3.2 8.0 0.00 0.00 0.00 50 1022.4
20260904114719 29 336 3.2 9.7 0.00 0.00 0.00 52 1022.4
20260904113216 29 309 6.4 11.3 0.00 0.00 0.00 53 1022.5
20260904111716 28 236 4.8 12.9 0.00 0.00 0.00 52 1022.6
20260904110215 28 282 4.8 11.3 0.00 0.00 0.00 55 1022.6
20260904104715 28 277 6.4 12.9 0.00 0.00 0.00 58 1022.5
20260904103215 28 229 4.8 11.3 0.00 0.00 0.00 54 1022.4
20260904101714 27 231 4.8 11.3 0.00 0.00 0.00 56 1022.2
20260904100216 27 231 1.6 11.3 0.00 0.00 0.00 57 1021.9
20260904094711 27 238 3.2 11.3 0.00 0.00 0.00 59 1021.8
20260904093210 27 222 12.9 19.3 0.00 0.00 0.00 59 1021.3
20260904091707 26 101 8.0 12.9 0.00 0.00 0.00 56 1020.9
20260904090207 26 103 1.6 9.7 0.00 0.00 0.00 57 1020.7
20260904084705 26 214 4.8 11.3 0.00 0.00 0.00 57 1020.7
20260904083900 26 222 1.6 6.4 0.00 0.00 0.00 57 1020.6
20260904081703 25 88 6.4 11.3 0.00 0.00 0.00 52 1020.3
20260904080201 25 110 6.4 12.9 0.00 0.00 0.00 55 1020.2
20260904074700 26 211 1.6 4.8 0.00 0.00 0.00 49 1020.2
20260904073201 27 211 4.8 9.7 0.00 0.00 0.00 48 1020.3
20260904071701 28 135 4.8 12.9 0.00 0.00 0.00 41 1020.2
20260904070159 28 138 4.8 16.1 0.00 0.00 0.00 40 1020.2
20260904064700 27 125 11.3 16.1 0.00 0.00 0.00 40 1019.9
20260904063158 28 101 8.0 16.1 0.00 0.00 0.00 39 1019.9
20260904062938 28 120 12.9 19.3 0.00 0.00 0.00 38 1019.8
20260904061659 28 132 11.3 16.1 0.00 0.00 0.00 39 1019.9
20260904054659 28 134 17.7 22.5 0.00 0.00 0.00 38 1019.6
20260904054541 28 133 14.5 20.9 0.00 0.00 0.00 39 1019.3
20260904051655 28 107 16.1 22.5 0.00 0.00 0.00 38 1019.2
20260904050155 27 134 16.1 22.5 0.00 0.00 0.00 40 1019.2
20260904044655 28 150 14.5 22.5 0.00 0.00 0.00 40 1019.0
20260904043155 28 101 14.5 24.1 0.00 0.00 0.00 40 1018.9
20260904041654 28 87 11.3 19.3 0.00 0.00 0.00 41 1019.0
20260904041541 28 137 12.9 22.5 0.00 0.00 0.00 40 1019.0
20260904034654 29 107 14.5 20.9 0.00 0.00 0.00 39 1019.1
20260904033856 28 148 9.7 16.1 0.00 0.00 0.00 40 1019.0
20260904031655 28 105 9.7 12.9 0.00 0.00 0.00 42 1018.9
20260904030153 28 104 8.0 16.1 0.00 0.00 0.00 43 1019.0
20260904024650 27 96 9.7 17.7 0.00 0.00 0.00 46 1019.1
20260904023151 26 111 8.0 12.9 0.00 0.00 0.00 51 1019.3
20260904021651 25 99 6.4 11.3 0.00 0.00 0.00 53 1019.5
20260904020852 25 147 4.8 6.4 0.00 0.00 0.00 52 1019.9
20260904014649 25 148 4.8 8.0 0.00 0.00 0.00 56 1020.2
20260904013845 25 149 1.6 4.8 0.00 0.00 0.00 55 1020.4
20260904011648 25 149 0.0 8.0 0.00 0.00 0.00 52 1020.6
20260904010146 25 149 4.8 8.0 0.00 0.00 0.00 51 1020.6
20260904004644 25 127 3.2 6.4 0.00 0.00 0.00 54 1020.6
20260904003835 26 127 1.6 4.8 0.00 0.00 0.00 52 1020.6
20260904001640 27 127 0.0 4.8 0.00 0.00 0.00 49 1020.7
20260904000140 27 127 3.2 8.0 0.00 0.00 0.00 47 1020.8
20260903234640 27 127 6.4 11.3 0.00 0.00 0.00 48 1020.7
20260903233140 26 115 4.8 9.7 0.00 0.00 0.00 49 1020.8
20260903231640 26 113 4.8 6.4 0.00 0.00 0.00 48 1020.9
20260903230150 27 113 3.2 4.8 0.00 0.00 0.00 45 1020.9
20260903224638 27 113 1.6 6.4 0.00 0.00 0.00 45 1021.0
20260903223836 26 113 4.8 6.4 0.00 0.00 0.00 45 1021.0
20260903221636 26 113 3.2 6.4 0.00 0.00 0.00 48 1021.0
20260903220134 26 113 3.2 4.8 0.00 0.00 0.00 45 1021.1
20260903214634 26 113 4.8 9.7 0.00 0.00 0.00 45 1021.2
20260903213134 27 156 3.2 8.0 0.00 0.00 0.00 45 1021.2
20260903211634 27 156 4.8 4.8 0.00 0.00 0.00 45 1021.4
20260903210132 27 156 3.2 6.4 0.00 0.00 0.00 46 1021.6
20260903204630 27 218 3.2 4.8 0.00 0.00 0.00 45 1021.4
20260903203128 27 218 1.6 3.2 0.00 0.00 0.00 45 1021.4
20260903201629 27 218 0.0 1.6 0.00 0.00 0.00 46 1021.3
20260903200128 28 218 0.0 3.2 0.00 0.00 0.00 45 1021.1
20260903194622 28 218 3.2 4.8 0.00 0.00 0.00 42 1020.9
20260903193122 28 218 0.0 4.8 0.00 0.00 0.00 41 1020.8
20260903191620 29 218 3.2 6.4 0.00 0.00 0.00 40 1020.7
20260903190118 30 218 4.8 8.0 0.00 0.00 0.00 38 1020.6
20260903184616 30 218 4.8 8.0 0.00 0.00 0.00 37 1020.6
20260903183114 31 218 6.4 9.7 0.00 0.00 0.00 36 1020.5
20260903182320 32 229 4.8 11.3 0.00 0.00 0.00 36 1020.6
20260903180112 33 267 3.2 6.4 0.00 0.00 0.00 35 1020.6
20260903174610 33 267 3.2 9.7 0.00 0.00 0.00 35 1020.6
20260903173805 33 246 8.0 14.5 0.00 0.00 0.00 35 1020.8
20260903171609 33 292 9.7 16.1 0.00 0.00 0.00 34 1020.9
20260903170107 33 237 9.7 19.3 0.00 0.00 0.00 35 1020.8
20260903164605 33 246 11.3 19.3 0.00 0.00 0.00 35 1020.8
20260903163106 33 253 12.9 20.9 0.00 0.00 0.00 35 1020.8
20260903161605 33 229 14.5 22.5 0.00 0.00 0.00 34 1020.8
20260903160106 33 240 14.5 22.5 0.00 0.00 0.00 34 1020.8
20260903154606 33 230 14.5 24.1 0.00 0.00 0.00 35 1020.8
20260903153104 34 242 16.1 24.1 0.00 0.00 0.00 35 1020.9
20260903151603 35 231 16.1 27.4 0.00 0.00 0.00 36 1021.0
20260903150103 35 241 16.1 25.7 0.00 0.00 0.00 36 1021.1
20260903144603 36 292 11.3 22.5 0.00 0.00 0.00 28 1021.2
20260903143104 36 257 9.7 19.3 0.00 0.00 0.00 24 1021.2
20260903142300 36 246 8.0 17.7 0.00 0.00 0.00 25 1021.4
20260903134601 35 246 3.2 11.3 0.00 0.00 0.00 28 1021.3
20260903133101 34 246 4.8 14.5 0.00 0.00 0.00 28 1021.3
20260903131600 34 289 4.8 14.5 0.00 0.00 0.00 28 1021.4
20260903130059 33 187 6.4 12.9 0.00 0.00 0.00 30 1021.4